TimeAWST,TemperatureF,Dew PointF,Humidity,Sea Level PressureIn,VisibilityMPH,Wind Direction,Wind SpeedMPH,Gust SpeedMPH,PrecipitationIn,Events,Conditions,WindDirDegrees,DateUTC
12:00 AM,72,57,50,29.83,,West,4.6,,,,,280,2012-10-06 16:00:00
12:00 AM,71.6,57.2,60,29.83,-9999.0,West,4.6,-,N/A,,Unknown,280,2012-10-06 16:00:00
1:00 AM,71.6,62.6,73,29.83,-9999.0,West,5.8,-,N/A,,Unknown,280,2012-10-06 17:00:00
2:00 AM,69.8,64.4,83,29.80,-9999.0,West,4.6,-,N/A,,Unknown,280,2012-10-06 18:00:00
3:00 AM,66,60,74,29.82,,NW,2.3,,,,,310,2012-10-06 19:00:00
3:00 AM,66.2,59.0,78,29.83,-9999.0,NW,2.3,-,N/A,,Unknown,310,2012-10-06 19:00:00
4:00 AM,64.4,60.8,88,29.83,-9999.0,North,4.6,-,N/A,,Unknown,350,2012-10-06 20:00:00
5:00 AM,64.4,60.8,88,29.86,-9999.0,North,3.5,-,N/A,,Unknown,10,2012-10-06 21:00:00
6:00 AM,65,63,91,29.86,,NE,4.6,,,,,50,2012-10-06 22:00:00
6:00 AM,64.4,62.6,94,29.86,-9999.0,NE,4.6,-,N/A,,Unknown,50,2012-10-06 22:00:00
7:00 AM,75.2,69.8,83,29.89,-9999.0,North,2.3,-,N/A,,Unknown,350,2012-10-06 23:00:00
8:00 AM,82.4,68.0,62,29.89,-9999.0,West,6.9,-,N/A,,Unknown,260,2012-10-07 00:00:00
9:00 AM,88,61,30,29.88,,SW,4.6,,,,,230,2012-10-07 01:00:00
9:00 AM,87.8,60.8,40,29.89,-9999.0,SW,4.6,-,N/A,,Unknown,230,2012-10-07 01:00:00
10:00 AM,95.0,57.2,28,29.86,-9999.0,SSW,5.8,-,N/A,,Unknown,210,2012-10-07 02:00:00
11:00 AM,100.4,51.8,20,29.83,-9999.0,SSW,6.9,-,N/A,,Unknown,200,2012-10-07 03:00:00
12:00 PM,103,44,7,29.79,,SSW,9.2,,,,,210,2012-10-07 04:00:00
12:00 PM,102.2,44.6,14,29.80,-9999.0,SSW,9.2,-,N/A,,Unknown,210,2012-10-07 04:00:00
1:00 PM,105.8,41.0,11,29.77,-9999.0,SSW,8.1,-,N/A,,Unknown,210,2012-10-07 05:00:00
2:00 PM,105.8,39.2,10,29.74,-9999.0,WNW,6.9,-,N/A,,Unknown,300,2012-10-07 06:00:00
3:00 PM,100,61,19,29.73,,NW,12.7,,,,,310,2012-10-07 07:00:00
3:00 PM,100.4,60.8,27,29.74,-9999.0,NW,12.7,-,N/A,,Unknown,310,2012-10-07 07:00:00
4:00 PM,95.0,62.6,34,29.74,-9999.0,NW,10.4,-,N/A,,Unknown,320,2012-10-07 08:00:00
5:00 PM,91.4,66.2,43,29.74,-9999.0,NNW,9.2,-,N/A,,Unknown,330,2012-10-07 09:00:00
6:00 PM,86,71,53,29.76,,North,9.2,,,,,350,2012-10-07 10:00:00
6:00 PM,86.0,71.6,62,29.77,-9999.0,North,9.2,-,N/A,,Unknown,350,2012-10-07 10:00:00
7:00 PM,82.4,71.6,70,29.80,-9999.0,North,6.9,-,N/A,,Unknown,350,2012-10-07 11:00:00
8:00 PM,80.6,71.6,74,29.80,-9999.0,NW,4.6,-,N/A,,Unknown,310,2012-10-07 12:00:00
9:00 PM,79,72,73,29.82,,NNW,4.6,,,,,340,2012-10-07 13:00:00
9:00 PM,78.8,71.6,78,29.83,-9999.0,NNW,4.6,-,N/A,,Unknown,340,2012-10-07 13:00:00
10:00 PM,75.2,71.6,89,29.83,-9999.0,NNE,1.2,-,N/A,,Unknown,30,2012-10-07 14:00:00
11:00 PM,73.4,68.0,83,29.80,-9999.0,West,3.5,-,N/A,,Unknown,270,2012-10-07 15:00:00